Вернуться в каталог

STARLINK-3861

АктивенСвязьVLEO
NORAD 52503·PAYLOAD·🇺🇸 United States

Запущен May 6, 2022 с Cape Canaveral Space Force Station

Loading…

Ближайшие Пролёты (ближайшие 24 часа)

TLE

СвежийSource: CelesTrak SupGP

Эпоха: Sep 15, 2026, 02:03 UTC

1 52503C 22049BE  26258.08590278 -.00012584  00000+0 -35999-3 0  2581
2 52503  53.1587 260.9518 0001229  90.1581 351.2007 15.35409697    13

Отслеживайте STARLINK-3861 в реальном времени с AllMySat

Download on the App Store